[[{"header":{"parameterUnit":"m.s-1","parameterCategory":1,"la1":30.2991,"la2":30.254,"lo1":-89.0895,"lo2":-89.0444,"dy":0.0017,"dx":0.0017,"nx":28,"ny":28,"refTime":"2025-08-19T21:00:00:Z","depth":0,"parameterNumber":2,"parameterNumberName":"U-component_of_WINDS"},"data":[0,0,0,0,0,0,0,0,0,0,0,0,0,0,0,0,0,0,0,0,0,0,0,0,0,0,0,0,0,0,0,0,0,0,0,0,0,0,0,0,0,0,0,0,0,0,0,0,0,0,0,0,0,0,0,0,0,0,1.066,1.0662,0,1.0875,1.0877,1.088,1.0959,1.0958,1.0958,1.0957,1.118,1.1187,1.1193,0,0,0,0,0,0,0,0,0,0,0,0,0,1.032,1.0326,1.066,1.0662,1.0665,1.0874,1.0877,1.088,1.0959,1.0958,1.0957,1.0957,1.1178,1.1186,1.1194,0,0,0,0,0,0,0,0,0,0,0,0,0,1.0494,1.0328,1.0659,1.073,1.0738,1.0874,1.0877,1.0881,1.0959,1.0958,1.0957,1.0956,1.1176,1.1185,1.1195,1.1277,0,0,1.1225,1.1229,0,0,0,0,0,0,0,0,1.0484,1.0507,1.0717,1.0725,1.0735,1.0889,1.084,1.1014,1.096,1.0875,1.0957,1.0956,1.1084,1.1102,1.1145,1.1288,1.1297,1.1226,1.1232,1.1236,1.1239,0,0,0,0,0,0,0,1.0472,1.0498,1.0745,1.072,1.0731,1.0751,1.0775,1.0873,1.0983,1.0883,1.0889,1.0913,1.1089,1.1135,1.115,1.1301,1.1226,1.1235,1.1241,1.1245,1.1522,1.1523,0,0,0,0,0,0,1.0448,1.0487,1.0738,1.0751,1.0604,1.0758,1.0785,1.0841,1.0983,1.1003,1.0914,1.0916,1.1118,1.1139,1.1158,1.1264,1.1236,1.1246,1.1251,1.152,1.1522,1.1524,0,0,0,0,0,0,1.044,1.047,1.073,1.0621,1.0656,1.0765,1.0827,1.0845,1.0891,1.1006,1.1026,1.094,1.1118,1.1145,1.1247,1.1273,1.125,1.1259,1.1519,1.1521,1.1523,1.1475,0,0,0,0,0,0,1.043,1.0466,1.0498,1.0621,1.0661,1.0813,1.0829,1.085,1.0908,1.0912,1.1036,1.1055,1.1119,1.1232,1.1257,1.1286,1.1267,1.1517,1.152,1.1522,1.1475,1.1475,1.1476,0,0,0,0,0,1.0418,1.0477,1.05,1.0529,1.0703,1.0815,1.0838,1.0909,1.0909,1.0943,1.1016,1.1051,1.1266,1.1241,1.127,1.1303,1.1516,1.1519,1.1522,1.1475,1.1475,1.1476,0,0,0,0,0,0,1.0356,1.0495,1.0521,1.0622,1.0705,1.0828,1.0872,1.0908,1.0994,1.0995,1.1082,1.1109,1.1204,1.1264,1.1234,1.139,1.1393,1.1402,1.1347,1.1349,1.1349,1.1333,1.1275,0,0,0,0,0,1.0353,1.0431,1.0549,1.0627,1.0667,1.0762,1.0813,1.0861,1.0952,1.0988,1.107,1.1157,1.1244,1.13,1.1387,1.1484,1.1512,1.1521,1.1521,1.1521,1.1528,1.1583,1.1588,1.1534,1.1534,1.1534,0,0,1.035,1.0436,1.048,1.0616,1.0687,1.0766,1.0791,1.0875,1.0934,1.1001,1.1102,1.1165,1.1268,1.1368,1.1416,1.1421,1.1549,1.1525,1.1524,1.1531,1.1587,1.1592,1.1596,1.1536,1.1536,1.1536,0,0,1.0384,1.0457,1.0529,1.0599,1.0705,1.0768,1.0785,1.0902,1.0945,1.1048,1.1099,1.1172,1.1321,1.1392,1.1448,1.1507,1.1543,1.1533,1.1536,1.1589,1.1593,1.1597,1.1618,1.1625,1.154,1.154,1.154,0,1.0367,1.0488,1.0562,1.0642,1.07,1.0763,1.0837,1.0901,1.1031,1.107,1.1073,1.126,1.1334,1.1451,1.1465,1.1508,1.1531,1.152,1.1586,1.1591,1.1596,1.1617,1.1625,1.1538,1.1538,1.1538,1.1539,0,1.0461,1.0544,1.059,1.0711,1.0775,1.0851,1.0937,1.0993,1.1035,1.1097,1.1201,1.1292,1.1397,1.1429,1.1471,1.1552,1.1551,1.1569,1.1574,1.1598,1.1619,1.1628,1.1535,1.1536,1.1536,1.1537,0,0,1.0462,1.0623,1.0639,1.0695,1.0816,1.0882,1.0961,1.1063,1.1109,1.1196,1.1265,1.1388,1.1405,1.1468,1.1519,1.1565,1.1606,1.1578,1.1582,1.158,1.17,1.1686,1.1694,1.163,1.1632,1.1634,1.1691,0,1.0512,1.0656,1.0724,1.0838,1.0915,1.0976,1.1045,1.1127,1.1187,1.1262,1.1329,1.1415,1.1431,1.1469,1.1518,1.1591,1.1632,1.1588,1.1696,1.1699,1.1667,1.1705,1.169,1.174,1.17,1.1702,1.1703,0,1.059,1.0675,1.0796,1.0907,1.0942,1.1003,1.1102,1.1172,1.1267,1.1307,1.1377,1.1426,1.1512,1.151,1.163,1.1599,1.1647,1.1689,1.1693,1.1706,1.1702,1.1718,1.1758,1.1765,1.1717,1.1716,1.1715,0,1.0578,1.0723,1.0814,1.086,1.0992,1.1033,1.1091,1.1184,1.124,1.1327,1.1365,1.146,1.1513,1.1586,1.166,1.1652,1.1772,1.1777,1.1809,1.1807,1.1831,1.1829,1.1879,1.1863,1.1862,1.1862,1.1862,0,1.0626,1.0698,1.081,1.0866,1.0948,1.1026,1.1105,1.1167,1.1249,1.1319,1.1377,1.1441,1.1535,1.161,1.1669,1.1759,1.1782,1.1818,1.1832,1.1812,1.1808,1.1845,1.1844,1.1864,1.1864,1.1863,1.1863,0,1.0627,1.0705,1.0808,1.0924,1.0955,1.101,1.1111,1.1167,1.123,1.1317,1.1342,1.144,1.1532,1.1613,1.1735,1.1774,1.1867,1.1885,1.1834,1.1842,1.1869,1.1865,1.1945,1.1959,1.1932,1.1933,1.1933,0,1.0652,1.0708,1.0831,1.0881,1.0936,1.1017,1.1074,1.1154,1.1211,1.1322,1.1366,1.1462,1.1543,1.1687,1.177,1.1864,1.1885,1.1906,1.1899,1.1877,1.1885,1.188,1.1886,1.1906,1.1906,1.1905,1.1905,0,1.0689,1.0725,1.0805,1.0899,1.0966,1.1045,1.1124,1.1162,1.1257,1.1319,1.1413,1.1475,1.1599,1.1694,1.1796,1.1856,1.1897,1.1907,1.1919,1.1899,1.1867,1.1884,1.1834,1.1905,1.1905,1.1905,1.1905,1.1905,1.0703,1.0756,1.0849,1.0937,1.1005,1.1078,1.1137,1.1206,1.1286,1.1392,1.1434,1.153,1.1623,1.1764,1.1824,1.19,1.1907,1.1925,1.193,1.1933,1.1929,1.1855,1.1919,1.192,1.192,1.192,1.192,0,1.0743,1.0806,1.0885,1.0995,1.1064,1.1094,1.1184,1.124,1.1323,1.1406,1.1484,1.1592,1.1683,1.1773,1.187,1.1913,1.1934,1.1936,1.1934,1.1947,1.1918,1.1897,1.1918,1.1918,1.1917,1.1917,1.1917,1.1917,1.0771,1.0861,1.0908,1.1032,1.1095,1.1189,1.1237,1.1305,1.1371,1.1489,1.1565,1.1622,1.1708,1.1811,1.1896,1.192,1.1953,1.195,1.1979,1.195,1.1949,1.1948,1.1929,1.1956,1.1956,1.2002,1.2002,1.2002]},{"header":{"parameterUnit":"m.s-1","parameterCategory":1,"la1":30.2991,"la2":30.254,"lo1":-89.0895,"lo2":-89.0444,"dy":0.0017,"dx":0.0017,"nx":28,"ny":28,"refTime":"2025-08-19T21:00:00:Z","depth":0,"parameterNumber":3,"parameterNumberName":"V-component_of_WINDS"},"data":[0,0,0,0,0,0,0,0,0,0,0,0,0,0,0,0,0,0,0,0,0,0,0,0,0,0,0,0,0,0,0,0,0,0,0,0,0,0,0,0,0,0,0,0,0,0,0,0,0,0,0,0,0,0,0,0,0,0,3.81,3.81,0,3.8076,3.8076,3.8076,3.8067,3.8067,3.8067,3.8067,3.804,3.8039,3.8039,0,0,0,0,0,0,0,0,0,0,0,0,0,3.8135,3.8134,3.81,3.81,3.81,3.8076,3.8076,3.8076,3.8067,3.8067,3.8067,3.8067,3.804,3.804,3.8039,0,0,0,0,0,0,0,0,0,0,0,0,0,3.8116,3.8134,3.81,3.8092,3.8092,3.8076,3.8076,3.8076,3.8067,3.8067,3.8067,3.8067,3.8041,3.804,3.8038,3.8029,0,0,3.8035,3.8034,0,0,0,0,0,0,0,0,3.8117,3.8115,3.8094,3.8093,3.8092,3.8075,3.8078,3.806,3.8067,3.8076,3.8067,3.8067,3.8051,3.8049,3.8045,3.8028,3.8027,3.8035,3.8034,3.8034,3.8033,0,0,0,0,0,0,0,3.8118,3.8116,3.8091,3.8094,3.8092,3.8089,3.8086,3.8075,3.8063,3.8075,3.8074,3.8072,3.8051,3.8046,3.8044,3.8026,3.8035,3.8034,3.8033,3.8033,3.7997,3.7996,0,0,0,0,0,0,3.8121,3.8117,3.8092,3.809,3.8105,3.8088,3.8085,3.808,3.8063,3.8061,3.8072,3.8072,3.8048,3.8045,3.8043,3.8028,3.8034,3.8032,3.8032,3.7997,3.7996,3.7996,0,0,0,0,0,0,3.8122,3.8119,3.8093,3.8103,3.81,3.8087,3.8082,3.8079,3.8074,3.8061,3.8058,3.8069,3.8048,3.8045,3.8032,3.8028,3.8032,3.8031,3.7997,3.7997,3.7996,3.8001,0,0,0,0,0,0,3.8123,3.812,3.8117,3.8103,3.8099,3.8083,3.8081,3.8079,3.8073,3.8072,3.8058,3.8055,3.8048,3.8034,3.8031,3.8026,3.803,3.7997,3.7997,3.7996,3.8001,3.8001,3.8001,0,0,0,0,0,3.8124,3.8119,3.8117,3.8114,3.8096,3.8083,3.808,3.8072,3.8072,3.8069,3.8059,3.8056,3.8029,3.8032,3.8029,3.8024,3.7998,3.7997,3.7997,3.8001,3.8001,3.8001,0,0,0,0,0,0,3.8133,3.8118,3.8115,3.8105,3.8095,3.8082,3.8077,3.8073,3.8062,3.8062,3.8052,3.8048,3.8036,3.8029,3.8033,3.8012,3.8013,3.8011,3.8017,3.8017,3.8017,3.8018,3.8029,0,0,0,0,0,3.8134,3.8126,3.8112,3.8105,3.8101,3.809,3.8084,3.8078,3.8067,3.8063,3.8053,3.8042,3.803,3.8023,3.8012,3.8,3.7995,3.7994,3.7994,3.7994,3.7993,3.7983,3.7981,3.7994,3.7994,3.7994,0,0,3.8135,3.8126,3.8122,3.8107,3.8099,3.8089,3.8086,3.8077,3.8069,3.8061,3.8049,3.804,3.8027,3.8014,3.8007,3.8007,3.7988,3.7993,3.7993,3.7992,3.7982,3.7981,3.798,3.7994,3.7994,3.7994,0,0,3.8133,3.8126,3.8118,3.811,3.8097,3.8089,3.8087,3.8074,3.8068,3.8055,3.8048,3.8038,3.8019,3.8009,3.8002,3.7992,3.7987,3.7989,3.7987,3.7977,3.7976,3.7975,3.797,3.7968,3.7988,3.7988,3.7988,0,3.8137,3.8123,3.8115,3.8105,3.8098,3.809,3.8081,3.8073,3.8057,3.8051,3.8051,3.8026,3.8017,3.7999,3.7997,3.7992,3.7987,3.7991,3.7977,3.7976,3.7975,3.797,3.7968,3.7988,3.7988,3.7988,3.7988,0,3.8127,3.8117,3.8112,3.8097,3.8089,3.808,3.8068,3.8061,3.8055,3.8047,3.8032,3.802,3.8005,3.8,3.7995,3.7981,3.7981,3.798,3.798,3.7974,3.7969,3.7967,3.7988,3.7988,3.7988,3.7988,0,0,3.8131,3.811,3.8108,3.81,3.8084,3.8076,3.8065,3.805,3.8043,3.8032,3.8021,3.8004,3.8001,3.7992,3.7985,3.7977,3.7967,3.7976,3.7975,3.7973,3.7949,3.7949,3.7947,3.7964,3.7964,3.7963,3.7949,0,3.8126,3.8107,3.8098,3.8083,3.8072,3.8063,3.8053,3.8041,3.8032,3.8021,3.8011,3.7998,3.7997,3.7991,3.7982,3.7971,3.7962,3.7971,3.7952,3.7951,3.7955,3.7945,3.7947,3.7934,3.7947,3.7947,3.7947,0,3.8118,3.8106,3.809,3.8073,3.8068,3.8059,3.8044,3.8034,3.8019,3.8013,3.8002,3.7994,3.798,3.7981,3.796,3.7966,3.7957,3.795,3.7949,3.7947,3.7948,3.7941,3.793,3.7928,3.7944,3.7944,3.7944,0,3.812,3.81,3.8087,3.8081,3.8061,3.8055,3.8046,3.8032,3.8023,3.8008,3.8002,3.7986,3.7977,3.7964,3.7952,3.7954,3.7931,3.7932,3.7924,3.7924,3.7919,3.7919,3.7905,3.7915,3.7915,3.7915,3.7915,0,3.8115,3.8105,3.8088,3.808,3.8067,3.8056,3.8043,3.8033,3.802,3.8008,3.7999,3.7988,3.7973,3.7959,3.7949,3.7931,3.7928,3.7921,3.7918,3.7921,3.7922,3.7915,3.7915,3.7915,3.7915,3.7915,3.7915,0,3.8116,3.8105,3.809,3.8072,3.8067,3.8058,3.8042,3.8032,3.8022,3.8007,3.8002,3.7986,3.7969,3.7955,3.7933,3.7926,3.7907,3.7904,3.7912,3.791,3.7902,3.7903,3.7883,3.7878,3.7892,3.7892,3.7892,0,3.8114,3.8105,3.8086,3.8078,3.8069,3.8056,3.8047,3.8034,3.8024,3.8004,3.7997,3.7979,3.7964,3.7937,3.7922,3.7903,3.79,3.7894,3.7897,3.7899,3.7897,3.7898,3.7896,3.7893,3.7893,3.7893,3.7893,0,3.8109,3.8103,3.8091,3.8075,3.8064,3.805,3.8037,3.803,3.8014,3.8003,3.7986,3.7974,3.795,3.7932,3.7912,3.79,3.7893,3.7892,3.7889,3.7892,3.7896,3.7891,3.791,3.7893,3.7893,3.7893,3.7893,3.7893,3.8107,3.8099,3.8083,3.8068,3.8057,3.8043,3.8033,3.8021,3.8006,3.7987,3.7979,3.796,3.7942,3.7915,3.7903,3.7886,3.7886,3.7882,3.7881,3.788,3.7879,3.7899,3.7883,3.7883,3.7883,3.7883,3.7883,0,3.8101,3.809,3.8077,3.8058,3.8045,3.804,3.8024,3.8013,3.7997,3.7981,3.7967,3.7944,3.7926,3.7908,3.7888,3.7878,3.7874,3.7873,3.7873,3.787,3.7882,3.7886,3.7876,3.7876,3.7876,3.7876,3.7876,3.7876,3.8097,3.8081,3.8073,3.805,3.8039,3.8021,3.8012,3.7998,3.7985,3.7962,3.7946,3.7935,3.7917,3.7895,3.7876,3.7871,3.7864,3.7863,3.7857,3.7869,3.7869,3.787,3.7874,3.7862,3.7862,3.7846,3.7846,3.7846]}]]